DW8935 Weather Reports


time (UTC)temp
C
wind
direction
speed
KPH
gust
KPH
rain 1hr
cm
rain 24hr
cm
rain mn
cm
humidity
%
barometer
mb
20260507161601 12 265 0.0 0.0 0.00 0.00 0.00 89 1019.5
20260507160045 12 267 0.0 0.0 0.00 0.00 0.00 89 1019.5
20260507154544 12 275 0.0 0.0 0.00 0.00 0.00 90 1019.5
20260507153045 12 255 0.0 0.0 0.00 0.00 0.00 90 1019.5
20260507151541 12 296 0.0 0.0 0.00 0.00 0.00 90 1019.6
20260507150042 12 294 0.0 0.0 0.00 0.00 0.00 90 1019.8
20260507144544 12 301 0.0 0.0 0.00 0.00 0.00 90 1020.0
20260507143040 12 319 0.0 0.0 0.00 0.00 0.00 90 1020.0
20260507141535 11 275 0.0 0.0 0.00 0.00 0.00 91 1020.1
20260507140037 11 261 0.0 0.0 0.00 0.00 0.00 91 1020.2
20260507134534 11 297 0.0 0.0 0.00 0.00 0.00 91 1020.4
20260507133034 11 280 0.0 1.6 0.00 0.00 0.00 90 1020.6
20260507131536 11 261 0.0 1.6 0.00 0.00 0.00 90 1020.7
20260507130032 11 304 0.0 1.6 0.00 0.00 0.00 89 1021.0
20260507124532 11 267 0.0 3.2 0.00 0.00 0.00 89 1021.2
20260507123039 11 292 0.0 3.2 0.00 0.00 0.00 88 1021.5
20260507121532 11 251 3.2 8.0 0.00 0.00 0.00 88 1021.6
20260507120041 11 270 4.8 25.7 0.00 0.00 0.00 89 1021.6
20260507114530 11 294 8.0 20.9 0.00 0.00 0.00 90 1021.7
20260507113040 11 272 4.8 16.1 0.00 0.00 0.00 90 1021.6
20260507111531 11 269 3.2 14.5 0.00 0.00 0.00 89 1021.6
20260507110031 11 311 1.6 16.1 0.00 0.00 0.00 88 1021.5
20260507104531 11 284 3.2 11.3 0.00 0.00 0.00 87 1021.6
20260507103032 11 255 4.8 14.5 0.00 0.00 0.00 86 1021.9
20260507101529 11 247 3.2 20.9 0.00 0.00 0.00 85 1022.1
20260507100036 11 244 4.8 19.3 0.00 0.00 0.00 83 1022.2
20260507094528 11 249 6.4 19.3 0.00 0.00 0.00 83 1022.2
20260507093030 11 257 4.8 11.3 0.00 0.00 0.00 83 1021.8
20260507091528 10 267 3.2 9.7 0.00 0.00 0.00 85 1022.1
20260507090028 10 281 3.2 9.7 0.00 0.00 0.00 87 1022.0
20260507084528 10 260 3.2 8.0 0.00 0.00 0.00 88 1021.9
20260507083027 10 286 0.0 3.2 0.00 0.00 0.00 88 1021.8
20260507081533 10 261 0.0 3.2 0.00 0.00 0.00 87 1022.0
20260507080027 10 232 0.0 6.4 0.00 0.00 0.00 86 1021.7
20260507074532 10 199 1.6 8.0 0.00 0.00 0.00 85 1021.8
20260507073026 10 240 1.6 6.4 0.00 0.00 0.00 85 1021.7
20260507071532 10 273 1.6 12.9 0.00 0.00 0.00 84 1021.7
20260507070026 10 286 3.2 6.4 0.00 0.00 0.00 84 1021.5
20260507064527 10 258 1.6 6.4 0.00 0.00 0.00 83 1021.6
20260507063025 10 246 3.2 12.9 0.00 0.00 0.00 82 1021.7
20260507061532 10 265 0.0 8.0 0.00 0.00 0.00 82 1021.8
20260507060024 11 242 1.6 6.4 0.00 0.00 0.00 80 1021.9
20260507054524 11 242 3.2 9.7 0.00 0.00 0.00 78 1022.0
20260507053031 11 183 1.6 9.7 0.00 0.00 0.00 77 1022.0
20260507051524 11 252 1.6 8.0 0.00 0.00 0.00 76 1022.0
20260507050024 11 200 1.6 9.7 0.00 0.00 0.00 77 1021.8
20260507044524 11 196 1.6 12.9 0.00 0.00 0.00 75 1021.9
20260507043025 11 261 1.6 14.5 0.00 0.00 0.00 75 1021.8
20260507041523 11 212 4.8 11.3 0.00 0.00 0.00 79 1021.9
20260507040023 11 225 4.8 9.7 0.00 0.00 0.00 79 1021.9
20260507034532 11 239 3.2 8.0 0.00 0.00 0.00 80 1021.8
20260507033022 11 243 3.2 6.4 0.00 0.00 0.00 78 1022.0
20260507031522 11 186 1.6 9.7 0.00 0.00 0.00 74 1021.9
20260507030023 11 192 3.2 8.0 0.00 0.00 0.00 75 1021.9
20260507024521 11 178 4.8 9.7 0.00 0.00 0.00 77 1022.0
20260507023020 11 190 1.6 11.3 0.00 0.00 0.00 78 1022.1
20260507021520 11 239 3.2 9.7 0.00 0.00 0.00 77 1022.3
20260507020020 12 191 6.4 20.9 0.00 0.00 0.00 68 1022.4
20260507014521 12 252 6.4 17.7 0.00 0.00 0.00 62 1021.9
20260507013016 12 236 4.8 17.7 0.00 0.00 0.00 64 1021.9
20260507011613 11 193 6.4 20.9 0.00 0.00 0.00 67 1022.0
20260507010026 11 230 3.2 11.3 0.00 0.00 0.00 75 1021.9
20260507004507 10 263 1.6 11.3 0.00 0.00 0.00 81 1021.8
20260507003005 10 248 3.2 14.5 0.00 0.00 0.00 82 1021.7
20260507001502 10 243 4.8 11.3 0.00 0.00 0.00 83 1021.5
20260507000002 8 231 3.2 11.3 0.00 0.00 0.00 88 1021.4
20260506234501 7 221 0.0 4.8 0.00 0.00 0.00 90 1021.3
20260506233002 7 204 0.0 1.6 0.00 0.00 0.00 91 1021.2
20260506231600 7 246 0.0 1.6 0.00 0.00 0.00 92 1021.4
20260506230101 7 173 0.0 1.6 0.00 0.00 0.00 91 1021.1
20260506224613 7 247 0.0 3.2 0.00 0.00 0.00 91 1021.0
20260506223102 7 270 0.0 3.2 0.00 0.00 0.00 92 1021.0
20260506221557 7 314 0.0 1.6 0.00 0.00 0.00 92 1020.7
20260506220108 7 323 0.0 3.2 0.00 0.00 0.00 92 1020.5
20260506214555 6 238 0.0 1.6 0.00 0.00 0.00 92 1020.3
20260506213053 6 236 0.0 1.6 0.00 0.00 0.00 91 1020.1
20260506211556 6 188 0.0 11.3 0.00 0.00 0.00 91 1019.9
20260506210050 6 227 0.0 4.8 0.00 0.00 0.00 91 1019.4
20260506204549 6 243 0.0 1.6 0.00 0.00 0.00 91 1019.0
20260506203056 6 281 0.0 4.8 0.00 0.00 0.00 91 1018.7
20260506201548 6 286 0.0 3.2 0.00 0.00 0.00 91 1018.4
20260506200047 6 254 1.6 6.4 0.00 0.00 0.00 91 1018.5
20260506194551 6 297 1.6 9.7 0.00 0.00 0.00 91 1018.6
20260506193051 6 248 1.6 4.8 0.00 0.00 0.00 90 1019.3
20260506191545 6 268 0.0 4.8 0.00 0.00 0.00 90 1018.1
20260506190045 6 331 1.6 6.4 0.00 0.00 0.00 90 1017.9
20260506184543 6 324 0.0 6.4 0.00 0.00 0.00 89 1017.9
20260506183043 6 261 3.2 8.0 0.00 0.00 0.00 89 1018.7
20260506181558 6 221 3.2 9.7 0.00 0.00 0.00 88 1018.9
20260506180041 6 266 1.6 4.8 0.00 0.00 0.00 88 1018.4
20260506174539 6 282 1.6 8.0 0.00 0.00 0.00 87 1017.9
20260506173047 6 242 1.6 11.3 0.00 0.00 0.00 85 1018.6
20260506171535 7 179 4.8 12.9 0.00 0.00 0.00 85 1019.3
20260506170030 7 232 4.8 9.7 0.00 0.00 0.00 81 1018.5
20260506164529 8 215 3.2 9.7 0.00 0.00 0.00 80 1018.5
20260506163028 8 272 0.0 4.8 0.00 0.00 0.00 78 1017.9